When you browse on this site, cookies collect data to enhance your experience and personalize the content and advertising you see.
Visit our Privacy Policy to learn more. By continuing to use the site, you agree to this use of cookies and data.

Stündliche Wetter Santiago del Estero

Heute, 12 August, Mittwoch

Zeit Temperatur Niederschläge Wind Luftdruck Luftfeuchtigkeit
00:00 +7°C° 0 mm 1 m/S 746 mmHg 26%
01:00 +6°C° 0 mm 1 m/S 746 mmHg 29%
02:00 +4°C° 0 mm 0 m/S 745 mmHg 32%
03:00 +4°C° 0 mm 0 m/S 745 mmHg 33%
04:00 +4°C° 0 mm 0 m/S 744 mmHg 35%
05:00 +3°C° 0 mm 0 m/S 744 mmHg 36%
06:00 +5°C° 0 mm 0 m/S 744 mmHg 33%
07:00 +6°C° 0 mm 0 m/S 745 mmHg 30%
08:00 +8°C° 0 mm 0 m/S 745 mmHg 27%
09:00 +10°C° 0 mm 0 m/S 745 mmHg 24%
10:00 +13°C° 0 mm 1 m/S 745 mmHg 21%
11:00 +15°C° 0 mm 1 m/S 745 mmHg 18%
12:00 +16°C° 0 mm 1 m/S 744 mmHg 17%
13:00 +18°C° 0 mm 1 m/S 743 mmHg 16%
14:00 +20°C° 0 mm 1 m/S 741 mmHg 16%
15:00 +20°C° 0 mm 1 m/S 741 mmHg 17%
16:00 +20°C° 0 mm 1 m/S 741 mmHg 18%
17:00 +20°C° 0 mm 1 m/S 740 mmHg 19%
18:00 +16°C° 0 mm 1 m/S 741 mmHg 22%
19:00 +14°C° 0 mm 2 m/S 741 mmHg 26%
20:00 +12°C° 0 mm 2 m/S 742 mmHg 30%
21:00 +10°C° 0 mm 2 m/S 742 mmHg 33%
22:00 +9°C° 0 mm 2 m/S 742 mmHg 37%
23:00 +9°C° 0 mm 2 m/S 742 mmHg 40%

Morgen, 13 August, Donnerstag

Zeit Temperatur Niederschläge Wind Luftdruck Luftfeuchtigkeit
00:00 +8°C° 0 mm 2 m/S 742 mmHg 46%
01:00 +7°C° 0 mm 2 m/S 742 mmHg 51%
02:00 +7°C° 0 mm 1 m/S 742 mmHg 57%
03:00 +6°C° 0 mm 1 m/S 741 mmHg 62%
04:00 +6°C° 0 mm 1 m/S 741 mmHg 67%
05:00 +4°C° 0 mm 0 m/S 741 mmHg 73%
06:00 +6°C° 0 mm 0 m/S 742 mmHg 66%
07:00 +7°C° 0 mm 0 m/S 742 mmHg 59%
08:00 +9°C° 0 mm 0 m/S 743 mmHg 52%
09:00 +13°C° 0 mm 1 m/S 743 mmHg 46%
10:00 +15°C° 0 mm 1 m/S 743 mmHg 39%
11:00 +18°C° 0 mm 2 m/S 743 mmHg 33%
12:00 +19°C° 0 mm 2 m/S 742 mmHg 29%
13:00 +21°C° 0 mm 2 m/S 741 mmHg 26%
14:00 +23°C° 0 mm 2 m/S 740 mmHg 23%
15:00 +23°C° 0 mm 2 m/S 740 mmHg 24%
16:00 +23°C° 0 mm 2 m/S 739 mmHg 24%
17:00 +23°C° 0 mm 2 m/S 739 mmHg 24%
18:00 +19°C° 0 mm 2 m/S 739 mmHg 28%
19:00 +17°C° 0 mm 2 m/S 739 mmHg 32%
20:00 +15°C° 0 mm 2 m/S 739 mmHg 36%
21:00 +14°C° 0 mm 2 m/S 739 mmHg 38%
22:00 +13°C° 0 mm 2 m/S 739 mmHg 41%
23:00 +12°C° 0 mm 3 m/S 739 mmHg 43%

übermorgen, 14 August, Freitag

Zeit Temperatur Niederschläge Wind Luftdruck Luftfeuchtigkeit
00:00 +12°C° 0 mm 2 m/S 738 mmHg 47%
01:00 +10°C° 0 mm 2 m/S 737 mmHg 52%
02:00 +10°C° 0 mm 2 m/S 737 mmHg 57%
03:00 +9°C° 0 mm 2 m/S 736 mmHg 62%
04:00 +9°C° 0 mm 2 m/S 736 mmHg 67%
05:00 +8°C° 0 mm 2 m/S 735 mmHg 72%
06:00 +9°C° 0 mm 2 m/S 736 mmHg 70%
07:00 +11°C° 0 mm 1 m/S 737 mmHg 68%
08:00 +13°C° 0 mm 1 m/S 737 mmHg 66%
09:00 +15°C° 0 mm 2 m/S 738 mmHg 58%
10:00 +18°C° 0 mm 3 m/S 738 mmHg 51%
11:00 +21°C° 0 mm 4 m/S 738 mmHg 43%
12:00 +24°C° 0 mm 3 m/S 738 mmHg 38%
13:00 +25°C° 0 mm 2 m/S 737 mmHg 33%
14:00 +27°C° 0 mm 1 m/S 737 mmHg 28%
15:00 +27°C° 0 mm 2 m/S 737 mmHg 28%
16:00 +27°C° 0 mm 3 m/S 737 mmHg 27%
17:00 +27°C° 0 mm 5 m/S 738 mmHg 26%
18:00 +23°C° 0 mm 5 m/S 739 mmHg 30%
19:00 +21°C° 0 mm 5 m/S 739 mmHg 34%
20:00 +17°C° 0 mm 6 m/S 740 mmHg 38%
21:00 +16°C° 0 mm 5 m/S 741 mmHg 37%
22:00 +15°C° 0 mm 5 m/S 742 mmHg 36%
23:00 +13°C° 0 mm 4 m/S 743 mmHg 35%

15 August, Samstag

Zeit Temperatur Niederschläge Wind Luftdruck Luftfeuchtigkeit
00:00 +12°C° 0 mm 4 m/S 743 mmHg 39%
01:00 +12°C° 0 mm 3 m/S 743 mmHg 43%
02:00 +11°C° 0 mm 3 m/S 742 mmHg 46%
03:00 +10°C° 0 mm 3 m/S 742 mmHg 49%
04:00 +10°C° 0 mm 2 m/S 742 mmHg 51%
05:00 +9°C° 0 mm 2 m/S 742 mmHg 53%
06:00 +10°C° 0 mm 2 m/S 742 mmHg 50%
07:00 +11°C° 0 mm 1 m/S 743 mmHg 47%
08:00 +12°C° 0 mm 1 m/S 743 mmHg 44%
09:00 +14°C° 0 mm 1 m/S 742 mmHg 41%
10:00 +16°C° 0 mm 2 m/S 742 mmHg 39%
11:00 +18°C° 0 mm 3 m/S 742 mmHg 36%
12:00 +19°C° 0 mm 3 m/S 741 mmHg 36%
13:00 +21°C° 0 mm 3 m/S 739 mmHg 36%
14:00 +24°C° 0 mm 3 m/S 738 mmHg 36%
15:00 +24°C° 0 mm 3 m/S 738 mmHg 35%
16:00 +24°C° 0 mm 3 m/S 738 mmHg 35%
17:00 +24°C° 0 mm 2 m/S 738 mmHg 35%
18:00 +21°C° 0 mm 2 m/S 739 mmHg 40%
19:00 +19°C° 0 mm 2 m/S 739 mmHg 46%
20:00 +17°C° 0 mm 2 m/S 740 mmHg 52%
21:00 +16°C° 0 mm 3 m/S 741 mmHg 53%
22:00 +16°C° 0 mm 3 m/S 742 mmHg 54%
23:00 +14°C° 0 mm 4 m/S 744 mmHg 55%

16 August, Sonntag

Zeit Temperatur Niederschläge Wind Luftdruck Luftfeuchtigkeit
00:00 +13°C° 0 mm 4 m/S 744 mmHg 52%
01:00 +13°C° 0 mm 5 m/S 745 mmHg 49%
02:00 +12°C° 0 mm 5 m/S 746 mmHg 46%
03:00 +10°C° 0 mm 5 m/S 746 mmHg 42%
04:00 +9°C° 0 mm 5 m/S 747 mmHg 38%
05:00 +8°C° 0 mm 4 m/S 747 mmHg 34%
06:00 +10°C° 0 mm 4 m/S 748 mmHg 31%
07:00 +10°C° 0 mm 3 m/S 748 mmHg 28%
08:00 +10°C° 0 mm 3 m/S 749 mmHg 25%
09:00 +12°C° 0 mm 3 m/S 749 mmHg 23%
10:00 +13°C° 0 mm 3 m/S 749 mmHg 20%
11:00 +16°C° 0 mm 3 m/S 748 mmHg 18%
12:00 +17°C° 0 mm 3 m/S 747 mmHg 18%
13:00 +18°C° 0 mm 3 m/S 747 mmHg 18%
14:00 +20°C° 0 mm 2 m/S 746 mmHg 19%
15:00 +20°C° 0 mm 3 m/S 745 mmHg 20%
16:00 +20°C° 0 mm 3 m/S 745 mmHg 21%
17:00 +20°C° 0 mm 3 m/S 744 mmHg 22%
18:00 +18°C° 0 mm 3 m/S 744 mmHg 25%
19:00 +16°C° 0 mm 3 m/S 744 mmHg 29%
20:00 +13°C° 0 mm 3 m/S 745 mmHg 33%
21:00 +12°C° 0 mm 3 m/S 745 mmHg 34%
22:00 +11°C° 0 mm 3 m/S 745 mmHg 34%
23:00 +11°C° 0 mm 3 m/S 745 mmHg 35%

17 August, Montag

Zeit Temperatur Niederschläge Wind Luftdruck Luftfeuchtigkeit
00:00 +10°C° 0 mm 3 m/S 745 mmHg 36%
01:00 +9°C° 0 mm 3 m/S 744 mmHg 37%
02:00 +9°C° 0 mm 2 m/S 744 mmHg 37%
03:00 +8°C° 0 mm 2 m/S 744 mmHg 37%
04:00 +8°C° 0 mm 2 m/S 743 mmHg 36%
05:00 +7°C° 0 mm 2 m/S 743 mmHg 36%
06:00 +8°C° 0 mm 2 m/S 743 mmHg 37%
07:00 +9°C° 0 mm 3 m/S 743 mmHg 38%
08:00 +10°C° 0 mm 3 m/S 744 mmHg 39%
09:00 +13°C° 0 mm 4 m/S 743 mmHg 35%
10:00 +17°C° 0 mm 4 m/S 743 mmHg 30%
11:00 +19°C° 0 mm 5 m/S 743 mmHg 26%
12:00 +21°C° 0 mm 5 m/S 742 mmHg 25%
13:00 +22°C° 0 mm 5 m/S 741 mmHg 24%
14:00 +23°C° 0 mm 5 m/S 740 mmHg 23%
15:00 +23°C° 0 mm 5 m/S 740 mmHg 23%
16:00 +23°C° 0 mm 4 m/S 739 mmHg 24%
17:00 +23°C° 0 mm 4 m/S 739 mmHg 24%
18:00 +21°C° 0 mm 4 m/S 739 mmHg 28%
19:00 +18°C° 0 mm 3 m/S 740 mmHg 32%
20:00 +16°C° 0 mm 3 m/S 740 mmHg 36%
21:00 +14°C° 0 mm 3 m/S 740 mmHg 36%
22:00 +13°C° 0 mm 3 m/S 741 mmHg 36%
23:00 +12°C° 0 mm 3 m/S 741 mmHg 37%
Mehr zeigen